This is the latest recevied weather packets stored in our database for station/object NE1CU. If no packets are shown the sender has not sent any weather packets the latest 10 day(s).
| Time | Temp. | Humidity | Pressure | Rain* | Wind** | Luminosity | Snow |
|---|---|---|---|---|---|---|---|
| 1777662614 | 17.22° C | 37% | 1010.4 hPa | 0 mm | - | 777 W/m² | - |
| 1777662309 | 17.22° C | 35% | 1010.5 hPa | 0 mm | - | 788 W/m² | - |
| 1777662005 | 16.67° C | 36% | 1010.6 hPa | 0 mm | - | 802 W/m² | - |
| 1777661701 | 16.67° C | 35% | 1010.5 hPa | 0 mm | - | 817 W/m² | - |
| 1777661398 | 17.22° C | 32% | 1010.6 hPa | 0 mm | - | 828 W/m² | - |
| 1777661094 | 17.22° C | 35% | 1010.6 hPa | 0 mm | - | 840 W/m² | - |
| 1777660794 | 17.22° C | 36% | 1010.7 hPa | 0 mm | - | 850 W/m² | - |
| 1777660492 | 17.78° C | 35% | 1010.8 hPa | 0 mm | - | 861 W/m² | - |
| 1777660188 | 17.22° C | 40% | 1010.9 hPa | 0 mm | - | 870 W/m² | - |
| 1777659885 | 16.67° C | 39% | 1011 hPa | 0 mm | - | 881 W/m² | - |
| 1777659581 | 16.67° C | 38% | 1011.1 hPa | 0 mm | - | 888 W/m² | - |
| 1777659279 | 16.67° C | 39% | 1011 hPa | 0 mm | - | 902 W/m² | - |
| 1777658976 | 16.11° C | 37% | 1011 hPa | 0 mm | - | 904 W/m² | - |
| 1777658673 | 16.11° C | 39% | 1010.9 hPa | 0 mm | - | 915 W/m² | - |
| 1777658369 | 16.67° C | 38% | 1011 hPa | 0 mm | - | 921 W/m² | - |
| 1777658066 | 16.67° C | 39% | 1011 hPa | 0 mm | - | 927 W/m² | - |
| 1777657763 | 15.56° C | 41% | 1011.2 hPa | 0 mm | - | 935 W/m² | - |
| 1777657461 | 15.56° C | 40% | 1011.1 hPa | 0 mm | - | 942 W/m² | - |
| 1777657158 | 16.11° C | 42% | 1011 hPa | 0 mm | - | 943 W/m² | - |
| 1777656856 | 16.11° C | 40% | 1011 hPa | 0 mm | - | 946 W/m² | - |
| 1777656551 | 16.11° C | 43% | 1011.1 hPa | 0 mm | - | 954 W/m² | - |
| 1777656246 | 16.11° C | 42% | 1011.2 hPa | 0 mm | - | 957 W/m² | - |
| 1777655942 | 16.11° C | 41% | 1011.2 hPa | 0 mm | - | 959 W/m² | - |
| 1777655639 | 16.67° C | 41% | 1011 hPa | 0 mm | - | 967 W/m² | - |
| 1777655335 | 16.11° C | 44% | 1011.1 hPa | 0 mm | - | 968 W/m² | - |
* Rain latest hour (hover to see other rain measurements)
** Current wind speed in m/s (hover to see current wind gust speed)